Flag for U.S.A. Weather past 2 weeks in Colorado Springs, Colorado, U.S.A.

Now
86 °F

Partly sunny.


Feels Like: 83 °F
Forecast: 63 / 88 °F
Wind: 8 mph from South

Location: City Of Colorado Springs Municipal Airport

Current Time: Jul 22, 2014 at 6:29:52 PM

Latest Report: Jul 22, 2014 at 5:54 PM


Visibility: 10 mi

Pressure: 30.08 "Hg

Humidity: 24%

Dew point: 45 °F

Location of Colorado SpringsLocation

Historic Weather in Colorado Springs — Graph

°F

Colorado Springs temperature yesterday

Maximum temperature yesterday: 88 °F (at 1:54 PM)
Minimum temperature yesterday: 64 °F (at 2:54 AM)
Average temperature yesterday: 76 °F

Past Weeks' High & Low Weather Summary

 TemperatureHumidityPressure
High95 °F (Jul 7, 12:54 PM)100% (Jul 15, 6:54 AM)30.37 "Hg (Jul 15, 6:54 AM)
Low50 °F (Jul 17, 5:54 AM)11% (Jul 7, 12:54 PM)29.74 "Hg (Jul 10, 7:54 PM)
Average70 °F57%29.97 "Hg
* Reported Jul 7 10:54 AM — Jul 22 10:54 AM, Colorado Springs, Weather by CustomWeather, © 2014

Note: Actual official high and low records may vary slightly from our data, if they occured in-between our weather recording intervals... More about our weather records

Advertising

Colorado Springs weather history for previous 24 hours

 ConditionsComfort  
Time TempWeatherWind HumidityBarometerVisibility
10:54 AM
Jul 22
88 °FPassing clouds.12 mph24%30.06 "Hg10 mi
9:54 AM87 °FPassing clouds.12 mph23%30.04 "Hg10 mi
8:54 AM84 °FPassing clouds.12 mph26%30.02 "Hg10 mi
7:54 AM77 °FPassing clouds.8 mph37%30.01 "Hg10 mi
6:54 AM66 °FSunny.7 mph59%30.04 "Hg10 mi
5:54 AM61 °FClear.7 mph67%30.04 "Hg10 mi
4:54 AM60 °FClear.9 mph69%30.04 "Hg10 mi
3:54 AM60 °FClear.6 mph67%30.03 "Hg10 mi
2:54 AM64 °FClear.6 mph54%30.01 "Hg10 mi
1:54 AM62 °FPassing clouds.6 mph62%29.99 "Hg10 mi
12:54 AM65 °FClear.8 mph56%29.99 "Hg10 mi
11:54 PM
Jul 21
66 °FPassing clouds.6 mph56%30.00 "Hg10 mi
10:54 PM65 °FClear.6 mph59%29.99 "Hg10 mi
9:54 PM71 °FPassing clouds.6 mph49%29.95 "Hg10 mi
8:54 PM77 °FPassing clouds.5 mph35%29.92 "Hg10 mi
7:54 PM82 °FScattered clouds.No wind26%29.93 "Hg10 mi
6:54 PM83 °FScattered clouds.8 mph28%29.93 "Hg10 mi
Weather by CustomWeather, © 2014

See weather overviewHow to use our weather pages